Location: ?????????
(55.9467°N, 38.5892°E)
Time: 06:41:10
(UTC+00:00)

Daily predictions for brighter satellites

Satellite Brightness Start Highest point End
(mag) Time Altitude Azimuth Time Altitude Azimuth Time Altitude Azimuth
SeaSat 1 3.5 14:28:32 10° E 14:32:39 27° NNE 14:36:47 10° NNW
Cosmos 2058 Rocket 4.4 14:30:27 10° SE 14:33:39 20° E 14:36:53 10° NE
SL-4 R/B 2.6 14:30:27 10° WSW 14:33:43 39° S 14:37:11 10° ESE
Cosmos 1300 3.8 14:31:43 10° SE 14:34:48 24° E 14:37:54 10° NE
Cosmos 1703 3.6 14:30:58 10° NNW 14:34:55 73° W 14:38:51 10° S
NOAA 11 4.2 14:29:42 10° SE 14:35:02 60° ENE 14:40:23 10° N
Cosmos 1346 Rocket 4.2 14:32:43 10° N 14:35:41 20° ENE 14:38:40 10° ESE
USA 305 3.3 14:31:38 10° W 14:35:56 66° S 14:40:12 10° ESE
H-2A R/B 3.8 14:33:11 10° S 14:37:33 51° W 14:41:59 10° NNW
Cosmos 1825 4.0 14:37:27 10° NNE 14:39:18 13° ENE 14:41:09 10° E
COSMOS 2455 4.1 14:34:03 10° WNW 14:39:23 31° NNW 14:44:43 10° NE
Cosmos 1818 3.6 14:34:54 10° SW 14:40:21 85° SE 14:45:52 10° NE
CZ-2D R/B 4.1 14:37:06 10° ESE 14:40:24 29° ENE 14:43:43 10° N
Cosmos 1953 2.6 14:36:34 10° SSW 14:40:31 74° WNW 14:44:31 10° N
Cosmos 968 Rocket 3.9 14:35:30 10° NNW 14:40:32 44° NE 14:45:30 10° ESE
Aureole 3 Rocket 4.5 14:36:58 10° SE 14:40:36 25° ENE 14:45:16 10° NNE
Cosmos 2297 Rocket 2.2 14:35:33 10° NNW 14:41:14 66° NE 14:46:53 10° SE
Meteor 1-11 4.3 14:35:52 10° NNW 14:41:37 84° ENE 14:47:23 10° SSE
USA 306 3.3 14:38:02 10° W 14:42:18 64° S 14:46:33 10° ESE
CSL-04 DEB 4.4 14:38:43 10° NNE 14:42:39 61° ESE 14:46:32 10° S
Cosmos 2369 Rocket 2.9 14:37:58 10° SW 14:43:36 57° NW 14:49:16 10° NNE
In-Cosmos 22 Rocket 4.5 14:39:08 10° N 14:44:13 42° ENE 14:49:22 10° SE
Cosmos 1420 Rocket 4.3 14:39:30 10° SW 14:44:46 75° WNW 14:50:02 10° NNE
ERS-2 2.6 14:45:10 10° NNE 14:48:38 39° E 14:52:04 10° S
Cosmos 371 Rocket 4.3 14:45:32 10° SW 14:50:12 46° NW 14:54:55 10° NNE
COSMO-SKYMED 1 3.6 14:48:10 10° NE 14:51:51 26° E 14:55:28 10° SSE
CORIOLIS 4.3 14:46:50 10° SSE 14:52:11 80° WSW 14:57:36 10° NNW
Cosmos 1340 3.0 14:48:51 10° N 14:52:28 41° ENE 14:56:04 10° SE
FengYun 1-2 T 4.3 14:46:54 10° SSE 14:52:34 84° ENE 14:58:14 10° NNW
Timation 2 Rocket 4.3 14:46:23 10° NW 14:52:56 80° WSW 14:59:42 10° SSE
H-2A R/B 2.0 14:49:59 10° NNE 14:54:14 87° WNW 14:58:21 10° SSW
ADEOS Rocket 3.2 14:48:04 10° NNE 14:54:20 88° ESE 15:01:18 10° SSW
Cosmos 1110 Rocket 4.2 14:50:55 10° S 14:55:57 49° ESE 15:00:58 10° NE
Meteor 2-21 Rocket 4.5 14:52:55 10° NNW 14:59:09 84° ENE 15:05:18 10° SSE
Cosmos 1486 Rocket 4.1 14:55:11 10° NNW 15:00:30 59° NE 15:05:46 10° SE
Lacrosse 5 1.9 14:55:31 10° W 15:00:37 84° N 15:05:06 13° ENE
Cosmos 1825 Rocket 3.8 14:57:04 10° NNW 15:01:33 76° W 15:05:58 10° S
USA 281 4.1 14:56:49 10° S 15:03:14 55° WSW 15:09:42 10° NW
Aureole 3 3.8 15:02:22 10° SSE 15:04:50 23° E 15:07:17 10° NE
Envisat 4.5 15:00:15 10° SSW 15:05:04 42° W 15:09:55 10° NNW
Cosmos 292 Rocket 4.2 15:02:28 10° S 15:06:58 42° ESE 15:11:33 10° NE
Okean O Rocket 2.8 15:05:32 10° S 15:09:46 48° W 15:14:00 10° NNW
Cosmos 1503 Rocket 4.3 15:05:11 10° NNW 15:10:13 46° NE 15:15:16 10° SE
Cosmos 2219 3.3 15:05:36 10° NW 15:11:24 84° WSW 15:17:11 10° SSE
YAOGAN 1 2.9 15:07:44 10° SE 15:11:49 42° ENE 15:15:55 10° N
Feng Yun 1-1 Rocket 4.5 15:06:59 10° SSE 15:12:55 88° WSW 15:18:54 10° NNW
NOSS 2-1 (E) 3.7 15:09:43 10° WSW 15:13:07 55° NNW 15:16:47 12° NE
FALCON 9 DEB 3.6 15:09:49 10° W 15:13:10 52° S 15:15:37 17° ESE
Landsat 5 4.3 15:09:43 10° N 15:13:27 48° WNW 15:17:13 10° SW
CZ-2C R/B 3.5 15:08:50 10° SE 15:14:22 50° ENE 15:19:44 10° N
ERBS 2.3 15:12:46 10° W 15:16:07 74° N 15:18:15 21° ENE
SMAP 4.5 15:13:16 10° S 15:17:42 43° W 15:22:10 10° NNW
Cosmos 1553 Rocket 4.3 15:12:00 10° SSE 15:17:53 42° E 15:23:41 10° NNE
Cosmos 1943 Rocket 3.7 15:13:03 10° W 15:17:57 31° NW 15:22:51 10° NNE
Cosmos 2082 3.8 15:14:26 10° NNW 15:20:10 63° NE 15:25:52 10° SE
Cosmos 1354 Rocket 4.2 15:16:36 10° NNW 15:21:43 49° NE 15:26:50 10° SE
Cosmos 1726 Rocket 3.5 15:17:58 10° S 15:22:18 68° E 15:26:42 10° NNE
Cosmos 1455 4.3 15:20:44 10° SE 15:21:06 12° SE 15:21:06 12° SE
Meteor 2-10 Rocket 4.3 15:19:47 10° SSE 15:24:16 29° E 15:28:38 10° NNE
USA 307 3.5 15:20:56 10° W 15:25:07 52° SSW 15:28:30 15° SE
Cosmos 2278 Rocket 4.1 15:21:32 10° NW 15:25:24 18° N 15:29:15 10° NE
ATLAS 5 CENTAUR R/B 2.6 15:23:33 10° W 15:27:50 44° NNW 15:31:58 14° NE
Cosmos 2228 3.0 15:25:23 10° SSW 15:29:39 83° WNW 15:33:58 10° N
USA 308 3.6 15:25:45 10° W 15:29:55 51° SSW 15:33:09 16° SE
CZ-4B R/B 1.3 15:26:52 10° NNE 15:30:10 80° WNW 15:33:21 10° SSW
Cosmos 1939 Rocket 3.0 15:27:05 10° S 15:31:01 76° WSW 15:34:58 10° NNW
Cosmos 1452 Rocket 4.3 15:27:08 10° SW 15:32:19 54° NW 15:37:32 10° NNE
SL-08 R/B 4.4 15:28:40 10° N 15:34:54 79° ENE 15:41:02 10° SSE
CZ-4 R/B 4.5 15:30:51 10° SSE 15:35:02 86° WSW 15:39:14 10° NNW
ARGOS 3.5 15:32:15 10° SE 15:37:22 44° ENE 15:42:31 10° N
Helios 1A Rocket 2.9 15:33:42 10° SSE 15:37:50 87° WSW 15:41:58 10° NNW
Cosmos 1606 Rocket 3.8 15:33:32 10° SSW 15:37:55 75° WNW 15:42:23 10° N
Cosmos 1745 Rocket 4.0 15:31:42 10° N 15:37:57 65° ENE 15:44:15 10° SSE
Cosmos 1844 Rocket 4.2 15:35:11 10° NNW 15:39:26 21° NNE 15:42:00 16° NE
SKYMED 2 3.5 15:35:52 10° NNE 15:40:13 64° ESE 15:44:32 10° S
Cosmos 2151 3.8 15:38:44 10° N 15:42:25 28° ENE 15:42:52 28° ENE
Cosmos 1656 4.0 15:37:30 10° S 15:42:42 42° ESE 15:47:09 14° NE
Okean-O 2.6 15:38:32 10° SSE 15:42:58 89° SW 15:47:28 10° NNW
GENESIS II 4.2 15:39:00 10° SW 15:43:01 68° SE 15:45:10 26° ENE
BREEZE-M R/B 4.2 15:40:29 10° WSW 15:44:09 43° S 15:48:28 19° ESE
SJ-6B 4.3 15:45:04 22° NE 15:45:04 22° NE 15:47:55 10° N
Cosmos 2227 Rocket 2.6 15:39:48 10° NW 15:45:25 65° WSW 15:51:01 10° SSE
FALCON 9 DEB 4.4 15:42:52 10° SSW 15:45:27 22° SSE 15:45:35 22° SSE
SL-08 RB Rocket 4.3 15:44:23 27° E 15:45:49 33° ENE 15:49:52 10° N
Cosmos 1689 Rocket 1.8 15:44:31 16° NNE 15:46:44 69° ESE 15:49:38 10° S
H-2A R/B 2.1 15:42:27 10° SSE 15:47:49 63° ENE 15:53:13 10° NNW
GEOS 3 Rocket 3.8 15:43:24 12° SE 15:48:28 79° SW 15:53:55 10° NW
Ariane Rocket 3.8 15:47:26 26° E 15:48:58 32° ENE 15:53:28 10° N
PSLV R/B 3.9 15:45:08 10° NNE 15:49:20 64° ESE 15:53:27 10° S
Timation 1 Rocket 4.3 15:43:31 10° NW 15:49:34 72° NE 15:54:14 17° SE
Cosmos 1400 Rocket 2.7 15:47:02 10° S 15:51:08 78° ESE 15:55:14 10° NNE
Cosmos 2263 Rocket 2.7 15:46:00 10° NNW 15:51:25 42° NE 15:53:51 28° E
Cosmos 2058 2.7 15:47:21 10° N 15:51:29 77° ENE 15:55:34 10° SSE
Cosmos 1386 Rocket 4.5 15:45:07 10° N 15:51:35 75° ENE 15:57:57 10° SSE
NOSS 3-4 (A) 3.7 15:45:17 10° NW 15:51:57 72° NNE 15:56:44 23° ESE
NOSS 3-4 (C) 3.7 15:45:24 10° NW 15:52:03 71° NNE 15:56:48 24° ESE
Cosmos 1892 2.9 15:50:09 10° NNW 15:54:02 76° W 15:57:55 10° S
CZ-4 R/B 1.4 15:50:58 10° S 15:54:51 75° WSW 15:58:43 10° NNW
CZ-4C R/B 3.0 15:48:52 10° WNW 15:55:06 53° NNE 15:59:14 26° E
CSL-04 Rocket 3.6 15:49:37 10° SSE 15:55:08 72° ENE 16:00:38 10° NNW
Cosmos 1408 2.4 15:55:17 10° NNW 15:58:57 86° E 16:02:37 10° SSE
Meteor 2-1 Rocket 4.3 15:56:00 10° SSE 16:01:17 49° E 16:06:37 10° NNE
NOSS 2-1 (C) 4.5 16:02:07 10° W 16:05:25 34° NNW 16:07:11 23° NNE
Cosmos 1697 Rocket 3.2 16:01:56 10° S 16:07:00 36° ESE 16:07:49 35° E
Cosmos 1709 Rocket 4.0 16:01:24 10° N 16:07:45 64° ENE 16:14:05 10° SSE
USA 215 3.2 16:04:18 28° ESE 16:08:05 88° SSW 16:14:41 10° WNW
Cosmos 1331 Rocket 4.4 16:04:11 10° SW 16:09:17 61° WNW 16:14:26 10° NNE
SeaSat 1 2.4 16:06:39 24° SE 16:09:42 85° NE 16:14:41 10° NNW
Cosmos 1300 4.0 16:06:38 10° SW 16:10:16 41° WNW 16:13:56 10° N
CRYOSAT 2 4.3 16:05:35 10° N 16:10:27 64° E 16:15:16 10° S
Cosmos 2058 Rocket 3.4 16:06:41 10° SSW 16:11:10 69° WNW 16:15:42 10° N
Cosmos 1346 Rocket 3.2 16:08:30 10° NNW 16:12:28 63° W 16:16:25 10° S
SL-4 R/B 2.6 16:09:32 10° W 16:12:53 37° S 16:13:29 35° SSE
ATLAS 2AS CENTAUR R/B 2.9 16:06:23 10° NW 16:14:09 74° NNE 16:17:50 32° ESE
Cosmos 1825 2.0 16:11:39 10° NNW 16:15:28 86° ENE 16:16:47 39° SSE
USA 305 4.2 16:11:40 10° W 16:15:36 35° SSW 16:17:18 25° SSE
Cosmos 44 3.1 16:14:01 10° SW 16:18:38 90° NW 16:20:38 36° NE
SJ-11-01 4.4 16:16:20 10° S 16:21:00 77° WSW 16:25:43 10° NNW
Cosmos 2074 Rocket 4.4 16:15:14 10° N 16:21:00 38° ENE 16:21:39 37° E
USA 306 4.2 16:18:05 10° W 16:21:56 32° SSW 16:23:25 25° S
ERS-2 4.3 16:18:58 10° N 16:22:04 26° WNW 16:25:09 10° WSW
Cosmos 1315 Rocket 3.8 16:18:16 10° S 16:20:29 31° S 16:20:29 31° S
Cosmos 2297 Rocket 3.9 16:20:01 10° NW 16:24:58 32° WSW 16:29:55 10° SSW
COSMOS 2455 4.0 16:21:36 10° NW 16:26:57 31° NNE 16:28:52 26° NE
MOS 1 Rocket 3.2 16:22:25 10° NNE 16:27:00 66° ESE 16:31:51 10° S
Aureole 3 Rocket 4.1 16:23:06 10° SSW 16:27:24 57° WNW 16:33:30 10° N
SJ 16-02 2.8 16:24:24 10° N 16:27:09 24° NNE 16:27:09 24° NNE
COSMO-SKYMED 1 3.4 16:24:02 10° N 16:28:16 52° WNW 16:32:29 10° SW
Cosmos 2369 Rocket 4.1 16:24:18 10° WNW 16:28:50 23° NNW 16:33:24 10° NNE
Cosmos 883 Rocket 4.4 16:22:50 10° S 16:28:51 59° E 16:34:52 10° NNE
IRS-1A Rocket 4.2 16:27:43 43° ESE 16:29:20 60° ENE 16:34:46 10° NNW
Cosmos 1777 Rocket 3.9 16:24:16 10° NNW 16:29:29 68° ENE 16:30:35 52° ESE
Cosmos 1980 Rocket 4.2 16:24:51 10° SSE 16:25:27 13° SSE 16:25:27 13° SSE
Cosmos 1076 Rocket 3.9 16:26:53 10° NNW 16:31:07 63° W 16:34:43 14° S
Cosmos 2315 Rocket 4.0 16:26:41 10° SSE 16:32:40 53° E 16:38:40 10° NNE
S3M 3.9 16:27:12 10° S 16:33:19 89° ESE 16:39:35 10° NNE
HJ-1C 4.1 16:34:02 48° SW 16:34:30 53° W 16:37:50 10° NNW
MOS 1 4.3 16:35:18 49° ESE 16:36:37 62° ENE 16:42:13 10° NNW
Cosmos 2227 4.1 16:32:58 10° NNW 16:38:38 72° NE 16:39:46 56° ESE
Cosmos 1302 Rocket 4.4 16:34:59 10° SW 16:40:14 63° WNW 16:45:32 10° NNE
MetOp-A 4.1 16:40:39 58° ESE 16:41:22 65° ENE 16:46:42 10° NNW
Lacrosse 5 1.7 16:38:41 10° WNW 16:43:47 86° NNE 16:44:18 72° E
Resurs 01 Rocket 3.4 16:46:53 20° NNE 16:46:53 20° NNE 16:48:37 10° N
YAOGAN 1 4.4 16:44:10 10° SSW 16:48:02 31° W 16:51:55 10° NNW
Okean 3 Rocket 4.3 16:44:30 10° N 16:47:36 43° N 16:47:36 43° N
Meteor 2-3 Rocket 3.6 16:45:53 10° NNW 16:51:38 73° ENE 16:52:25 64° SE
SPOT 3 Rocket 4.2 16:53:07 42° NNE 16:53:07 42° NNE 16:57:10 10° N
ERBS 3.9 16:49:06 10° WNW 16:51:09 34° WNW 16:51:09 34° WNW
Cosmos 1766 Rocket 4.3 16:48:11 10° N 16:51:18 43° N 16:51:18 43° N
Cosmos 1455 4.3 16:55:00 10° SSW 17:04:25 - N 16:56:10 19° SW
Cosmos 2154 Rocket 4.5 16:55:55 10° N 17:00:58 43° NE 17:00:58 43° NE
Cosmos 1943 Rocket 4.3 16:59:49 10° NW 17:03:29 18° N 17:06:01 13° NNE
Meteor 2-10 Rocket 4.1 17:00:56 10° SSW 17:06:05 55° WNW 17:11:06 10° N
Terra 4.3 17:11:53 11° NNE 17:11:53 11° NNE 17:12:08 10° NNE
Cosmos 2278 Rocket 3.8 17:07:18 10° NNW 17:11:37 22° NNE 17:11:49 21° NNE
ATLAS 5 CENTAUR R/B 2.9 17:08:57 10° WNW 17:13:27 37° N 17:13:29 37° N
ARGOS 4.3 17:13:09 13° SSW 17:17:42 42° W 17:22:53 10° NNW
CZ-2C R/B 4.2 17:12:28 10° NNE 17:14:40 25° NNE 17:14:40 25° NNE
SJ-6B 4.4 17:20:42 33° NNW 17:20:42 33° NNW 17:23:08 10° NNW
Cosmos 1992 Rocket 4.2 17:14:05 10° SW 17:19:17 68° WNW 17:19:35 66° NW
Cosmos 2151 4.1 17:15:53 10° NNW 17:19:28 41° WNW 17:19:28 41° WNW
Cosmos 2369 4.0 17:16:43 10° SSW 17:21:09 56° SSW 17:21:09 56° SSW
Cosmos 1844 Rocket 3.5 17:19:16 10° NNW 17:23:39 41° NNE 17:23:39 41° NNE
Cosmos 1656 4.3 17:20:49 10° WSW 17:26:18 52° NW 17:28:36 33° NNE
H-2A R/B 3.9 17:22:56 10° SSW 17:27:37 29° W 17:32:23 10° NNW
Ariane Rocket 3.5 17:27:38 57° WSW 17:27:44 57° WSW 17:32:47 10° NNW
Cosmos 2263 Rocket 2.6 17:30:01 10° NW 17:35:33 57° WSW 17:35:33 57° WSW
NOSS 3-4 (A) 4.4 17:36:16 10° NW 17:42:48 48° SW 17:44:11 43° SSW
NOSS 3-4 (C) 4.4 17:36:23 10° NW 17:42:55 48° SW 17:44:15 44° SSW
CZ-4C R/B 2.7 17:37:25 10° NW 17:44:15 83° SW 17:44:25 82° SSW
Cosmos 2184 Rocket 4.1 17:40:14 10° NNW 17:46:17 73° WNW 17:46:17 73° WNW
SeaSat 1 4.4 17:46:28 20° SW 17:47:47 22° WSW 17:51:38 10° NW
Cosmos 1697 Rocket 3.4 17:45:15 10° SW 17:49:37 48° W 17:49:37 48° W
USA 215 3.7 17:51:39 50° SW 17:51:39 50° SW 17:57:53 10° WNW
ATLAS 2AS CENTAUR R/B 3.5 17:57:46 10° NW 18:04:52 45° WSW 18:05:16 45° SW
SJ 16-02 3.8 18:02:43 10° NNW 18:04:08 20° NW 18:04:08 20° NW
COSMOS 2455 3.9 18:08:00 10° NW 18:12:00 41° NNW 18:12:00 41° NNW
Cosmos 2369 Rocket 4.3 18:11:06 10° NW 18:14:59 18° N 18:15:17 18° N
ATLAS CENTAUR R/B 4.5 17:52:11 10° W 18:18:11 86° N 18:20:41 65° E
Resurs 01 Rocket 4.3 18:24:28 16° NNW 18:24:28 16° NNW 18:25:24 10° NNW
Lacrosse 5 4.1 18:21:44 10° WNW 18:23:30 21° W 18:23:30 21° W
Cosmos 1943 Rocket 4.4 18:45:16 10° NNW 18:47:32 18° N 18:47:32 18° N
Cosmos 2278 Rocket 4.3 18:51:33 10° NNW 18:53:39 22° NNW 18:53:39 22° NNW
ATLAS 5 CENTAUR R/B 4.4 18:53:44 10° NW 18:55:01 18° NW 18:55:01 18° NW
ADEOS II 4.4 23:11:52 10° NNE 23:13:34 19° NE 23:13:34 19° NE
Cosmos 1980 Rocket 4.1 23:30:57 25° NE 23:30:57 25° NE 23:35:01 10° E
Resurs 1-4 Rocket 4.3 23:27:16 10° NNE 23:28:50 20° NNE 23:28:50 20° NNE
SL-16 R/B 4.2 23:36:52 23° NNE 23:36:52 23° NNE 23:39:12 10° NNE
Cosmos 2219 Rocket 4.4 23:43:23 18° N 23:43:23 18° N 23:46:27 10° NNE
CZ-2D R/B 4.2 23:46:04 10° NNE 23:47:39 20° N 23:47:39 20° N
